sat.trackr.live / text

‹ back to catalog

STARLINK-30539

NORAD 58004 · 2023-153P

PAYLOAD ACTIVE UNKNOWN

§ Identity

Operator
Country
US
Launch date
2023-10-05
Launch site
AFETR
Launch vehicle
Mass (kg)
RCS (m²)

Purposes: comms

External: N2YO · Heavens-Above · Gunter

§ Orbital elements

Epoch: 2026-09-20T16:48:19.155744Z

Period
94.27 min
Inclination
43.0051°
Eccentricity
0.0001144
Mean motion
15.27577151 rev/d
Perigee alt
482.3 km
Apogee alt
483.8 km
Semi-major
6,861.2 km
B*
-1.1892e-6
RAAN
45.4879°
Arg perigee
268.2594°
Mean anomaly
91.8126°
Rev number
16,471

§ Raw data

STARLINK-305391 58004U 23153P   26263.70022171 -.00000295  00000+0 -11892-5 0  99932 58004  43.0051  45.4879 0001144 268.2594  91.8126 15.27577151164712

JSON: /api/v1/satellites/58004 · /tle

For live sub-satellite position, see the globe view (requires WebGL).

§ Visibility from observer

Set your observer location to see the next 7 days of passes ≥ 10°. The values pass through the URL so the page stays shareable.

No JS? Fill the form by hand. The geolocation button needs JavaScript.